Date,TemperatureHighF,TemperatureAvgF,TemperatureLowF,DewpointHighF,DewpointAvgF,DewpointLowF,HumidityHigh,HumidityAvg,HumidityLow,PressureMaxIn,PressureMinIn,WindSpeedMaxMPH,WindSpeedAvgMPH,GustSpeedMaxMPH,PrecipitationSumIn
2013-10-1,57,52,49,50,48,45,93,84,64,30.05,29.86,23,8,28,0.01
2013-10-2,54,52,50,49,48,47,94,88,79,30.12,30.00,15,4,22,0.01
2013-10-3,57,52,47,49,48,46,95,85,69,30.40,30.13,8,1,10,0.00
2013-10-4,63,52,46,53,48,44,98,88,53,30.43,30.30,6,1,9,0.00
2013-10-5,69,55,47,53,50,46,98,83,51,30.31,30.10,5,0,9,0.00
2013-10-6,72,58,49,55,50,46,99,79,42,30.09,29.83,14,3,24,0.02
2013-10-7,60,56,54,53,50,46,94,83,62,29.97,29.86,21,9,25,0.07
2013-10-8,56,52,47,50,47,44,95,83,66,30.04,29.92,15,2,23,0.02
2013-10-9,56,47,42,49,45,42,99,92,69,30.10,29.91,7,1,8,0.00
2013-10-10,57,52,48,51,48,45,93,86,73,30.03,29.90,6,1,9,0.01
2013-10-11,55,52,50,51,50,49,97,92,82,30.11,30.03,3,0,5,0.01
2013-10-12,58,52,47,51,49,46,97,90,74,30.17,30.03,7,0,12,0.01
2013-10-13,55,49,44,50,47,44,98,92,76,30.33,30.17,10,1,12,0.00
2013-10-14,58,48,42,49,45,42,100,90,65,30.39,30.32,6,1,7,0.01
2013-10-15,59,50,44,52,47,43,99,92,68,30.35,30.14,9,0,11,0.00
2013-10-16,54,51,47,50,49,46,97,92,85,30.16,30.11,11,1,13,0.00
2013-10-17,55,50,47,50,48,46,97,92,83,30.24,30.16,9,2,11,0.00
2013-10-18,55,48,44,51,47,43,100,95,84,30.21,30.11,7,1,13,0.01
2013-10-19,50,47,45,49,46,44,100,97,93,30.16,30.11,6,1,7,0.00
2013-10-20,50,48,47,48,47,46,97,95,92,30.16,30.11,6,1,9,0.00
2013-10-21,51,49,47,49,48,46,98,96,92,30.13,30.06,7,2,7,0.00
2013-10-22,56,49,46,52,48,46,100,97,85,30.08,29.99,7,2,10,0.00
2013-10-23,57,48,45,53,47,45,100,97,81,30.02,29.94,6,1,7,0.01
2013-10-24,50,48,46,50,47,46,100,99,96,30.08,29.98,6,1,7,0.00
2013-10-25,52,50,47,50,48,47,99,95,90,30.24,30.09,7,1,9,0.00
2013-10-26,53,52,50,48,47,46,92,86,82,30.29,30.16,12,3,13,0.00
2013-10-27,56,51,47,50,47,46,100,89,72,30.16,29.86,14,2,21,0.01
2013-10-28,56,51,43,47,41,34,97,72,43,29.91,29.84,24,2,28,0.00
2013-10-29,57,46,38,44,40,37,97,83,51,30.00,29.91,6,1,9,0.00
2013-10-30,56,48,40,48,43,39,97,83,68,30.08,29.99,12,3,19,0.01
2013-10-31,55,52,50,52,49,45,95,89,75,30.21,30.05,17,3,22,0.01